Location: Palau
(42.3086°N, 3.1507°E)
Time: 12:17:11
(UTC+00:00)

Cosmos 1842 Rocket - Pass Details

Date: 26 May 2020
Orbit: 605 x 634 km, 82.5° (Epoch: 11 July)

Event Time Altitude Azimuth Distance (km) Brightness Sun altitude
Rises 03:38:15 0° 344° (NNW) 2,941 7.3 -6.7°
Reaches altitude 10° 03:40:36 10° 338° (NNW) 2,028 6.4 -6.4°
Maximum altitude 03:44:48 41° 268° (W) 922 4.1 -5.8°
Drops below altitude 10° 03:48:59 10° 198° (SSW) 2,004 5.7 -5.1°
Sets 03:51:17 0° 192° (SSW) 2,903 6.6 -4.8°
